Location: Recife
(8.0585°S, 34.8848°W)
Time: 21:03:09
(UTC-03:00)

A-11 Canister half - Pass Details

Date: 22 April 2026
Orbit: 1515 x 1684 km, 47.2° (Epoch: 16 May)

Event Time Altitude Azimuth Distance (km) Brightness Sun altitude
Rises 01:11:49 0° 247° (WSW) 4,724 - -61.7°
Reaches altitude 10° 01:15:45 10° 260° (W) 3,714 - -60.8°
Maximum altitude 01:22:37 23° 308° (NW) 2,786 - -59.1°
Drops below altitude 10° 01:29:27 10° 357° (N) 3,660 - -57.4°
Exits shadow 01:32:37 - 9° (N) 4,443 11.6 -56.7°
Sets 01:33:21 0° 11° (NNE) 4,639 11.7 -56.5°
